Theta_e
292 292 292 291 291 291 292 292 293 294 294 295 295 295 296 297 299 299 299 299 301 305
291 292 290 290 291 290 291 292 292 293 292 293 294 294 295 294 295 298 300 299 299 299
291 291 290 290 290 290 291 291 291 291 292 292 292 293 294 293 294 295 296 300 299 299
289 289 289 289 289 290 290 290 290 291 290 290 291 292 292 293 293 293 294 296 297 299
288 288 288 288 289 290 289 290 290 290 290 290 291 291 291 291 293 292 293 294 295 297
287 287 287 288 289 290 290 290 290 290 290 290 291 291 291 291 293 292 292 293 295 295
287 287 287 288 288 289 289 289 289 290 290 290 290 291 291 291 291 291 292 294 296 296
287 287 287 287 288 289 289 289 289 289 289 290 290 290 290 291 291 291 290 294 295 295
286 286 286 287 287 287 288 288 288 288 289 289 290 291 291 291 290 290 291 291 292 292
286 285 286 286 287 286 287 287 287 287 288 288 289 291 291 291 290 290 290 290 290 289
285 285 285 285 285 286 286 286 286 286 286 288 289 291 291 291 291 291 290 290 289 288
285 285 285 285 285 286 285 285 285 285 286 286 288 291 291 291 288 287 288 288 289 290
285 285 285 285 285 285 285 285 285 285 285 286 287 290 291 291 286 286 286 286 288 286
285 285 285 285 285 285 285 285 285 285 285 285 286 288 293 293 287 286 285 285 285 286
Wind_Speed
7 7 8 10 9 10 9 10 13 12 14 14 15 13 10 8 9 13 10 12 9 11
9 13 12 13 11 10 12 11 13 14 14 15 13 13 14 11 11 9 13 17 18 14
12 14 11 11 12 14 14 15 16 16 16 15 16 15 14 12 11 13 11 10 15 19
12 12 13 11 12 13 15 16 16 16 16 16 16 14 14 15 14 15 15 15 15 14
12 12 11 12 13 14 16 17 17 17 17 16 16 15 16 16 15 15 15 14 16 13
13 11 12 12 13 15 16 16 16 15 16 16 16 16 16 15 15 15 13 14 15 6
11 10 12 12 14 16 15 16 15 14 16 16 15 15 15 14 14 14 13 14 11 9
12 10 12 12 14 14 14 14 14 14 14 14 13 11 13 13 12 13 13 10 11 11
12 11 12 12 13 13 13 13 13 13 11 12 7 13 18 14 10 11 10 10 8 6
11 12 12 12 12 12 12 12 12 12 11 9 8 12 16 16 10 8 11 9 5 6
11 11 11 12 11 11 10 11 11 11 10 7 6 10 12 12 8 8 4 4 6 6
10 11 11 11 11 10 9 9 10 9 10 6 5 8 10 8 4 4 7 6 6 6
10 9 10 10 10 7 7 8 7 9 8 10 8 8 10 7 2 3 2 2 5 7
9 9 9 9 7 6 7 6 7 8 7 10 11 8 3 8 3 3 2 1 2 1
Wind_Direction
302 304 301 299 300 299 298 293 291 287 285 283 282 278 280 280 279 269 267 271 281 261
303 304 302 299 293 294 290 288 285 283 284 281 281 279 274 267 270 275 258 254 265 267
312 306 298 293 297 295 290 286 281 278 274 272 269 266 264 261 269 263 265 262 237 237
309 302 298 291 293 286 283 278 275 272 268 266 263 258 262 264 244 254 253 249 253 250
306 297 295 293 291 284 278 275 272 270 267 263 258 252 252 254 253 244 250 250 249 252
312 299 299 298 296 287 282 278 274 271 268 264 256 250 246 247 248 235 245 260 240 253
307 302 298 299 292 286 284 281 277 276 271 263 256 247 242 242 244 246 255 239 262 234
304 298 291 298 293 290 287 284 287 283 275 270 255 243 237 235 235 243 235 247 225 228
298 302 299 304 296 293 294 299 298 292 285 288 258 243 235 230 233 232 231 227 243 229
307 305 311 300 297 301 310 311 304 300 292 287 264 250 247 234 229 227 226 227 237 222
306 305 309 301 303 312 314 312 311 311 302 292 281 263 254 243 229 228 196 217 218 226
305 305 309 305 314 313 313 317 320 323 324 297 288 278 258 236 187 216 220 220 242 223
304 308 305 309 306 309 310 309 323 335 349 342 303 284 248 236 162 208 198 185 221 221
315 321 313 309 300 314 318 321 341 341 353 2 349 334 336 191 152 143 91 47 99 118